Miscellaneous Local Product
Issued by NWS Hastings, NE

Home | Current Version | Previous Version | Graphics & Text | Print | Product List | Glossary On
Versions: 1 2 3 4 5 6 7 8 9 10 11 12 13 14 15 16 17 18 19 20 21 22 23 24 25 26 27 28 29 30 31 32 33 34 35 36 37 38 39 40 41 42 43 44 45 46 47 48 49 50
000
AXUS43 KGID 190402
MISGRI

GID CWA HOURLY WEATHER ROUNDUP
NATIONAL WEATHER SERVICE HASTINGS NE
1100 PM CDT THU SEP 18 2014

NOTE: "FAIR" INDICATES FEW OR NO CLOUDS BELOW 12,000 FEET WITH NO
SIGNIFICANT WEATHER AND/OR OBSTRUCTIONS TO VISIBILITY.

...SOUTH CENTRAL NEBRASKA...

CITY           SKY/WX    TMP DP  RH WIND       PRES   REMARKS
GRAND ISLAND   MOCLDY    66  63  90 SE12      29.92R
HASTINGS       PTCLDY    66  61  84 SE14      29.92R
KEARNEY        CLEAR     66  63  88 SE14      29.90S
ORD            CLEAR     65  63  93 SE5       29.89S
YORK           CLOUDY    63  63 100 SE14G21   29.94S
AURORA         CLOUDY    64  62  94 SE13G25   29.93R
LEXINGTON      FOG       59  58  97 SE3       29.89F VSB 1/4
HOLDREGE       CLEAR     65  62  88 SE12      29.90S
HEBRON         CLOUDY    64  61  90 SE16G22   29.96R FOG

...NEBRASKA PANHANDLE...

CITY           SKY/WX    TMP DP  RH WIND       PRES   REMARKS
CHADRON        CLEAR     74  62  66 S22G33    29.77S
ALLIANCE       CLEAR     63  61  93 S14       29.87S
SCOTTSBLUFF    CLEAR     67  62  84 E12       29.86S
SIDNEY         CLEAR     66  61  84 SE16      29.93R

...WESTERN AND NORTH CENTRAL NEBRASKA...

CITY           SKY/WX    TMP DP  RH WIND       PRES   REMARKS
VALENTINE      PTCLDY    64  61  90 S10       29.84S
AINSWORTH      CLOUDY    66  61  85 S13       29.85F
ONEILL         CLOUDY    70  66  87 S16       29.88F
BROKEN BOW     CLOUDY    67  64  90 SE5       29.90F FOG
IMPERIAL       CLEAR     61  59  93 SE9       29.91S
NORTH PLATTE   CLEAR     57  56  96 CALM      29.89F
MCCOOK         CLEAR     61  60  97 CALM      29.90S FOG

...EASTERN NEBRASKA...

CITY           SKY/WX    TMP DP  RH WIND       PRES   REMARKS
NORFOLK        CLEAR     64  58  80 SE16G25   29.92S
SO SIOUX CITY  PTCLDY    62  55  77 SE10      29.95R
TEKAMAH        CLEAR     62  56  80 SE13      29.96F
ALBION         CLEAR     64  59  85 SE10      29.91S
OMAHA EPPLEY   PTCLDY    63  57  81 SE15      29.98S
OFFUTT AFB     PTCLDY    61  61 100 SE8       29.99R
MILLARD        CLEAR     63  59  88 SE10      29.98S
LINCOLN        CLOUDY    64  59  83 S14       29.98R
NEBRASKA CITY  CLEAR     60  58  95 S6        30.00S
BEATRICE       CLOUDY    63  60  91 SE12G18   29.98S
FALLS CITY     CLEAR     59  58  96 SE3       30.00S

...NORTHERN KANSAS...

CITY           SKY/WX    TMP DP  RH WIND       PRES   REMARKS
GOODLAND       CLEAR     71  54  54 S14       29.94S
HILL CITY      CLEAR     70  64  81 SE3       29.90R
NORTON         CLEAR     63  61  94 CALM      29.88  FOG
PHILLIPSBURG   CLEAR     70  61  73 E8        29.90S
SMITH CENTER   CLEAR     70  63  78 SE18G24   29.92S
BELOIT         CLOUDY    68  64  88 SE14G20   29.93S
HAYS           CLEAR     72  61  68 SE9       29.92R
RUSSELL        CLEAR     71  60  68 SE16      29.92R
CONCORDIA      CLOUDY    66  64  93 SE16G24   29.96S
SALINA         MOCLDY    70  65  84 SE13      29.96S
TOPEKA         CLEAR     62  61  96 E5        30.01S FOG



USA.gov is the U.S. government's official web portal to all federal, state and local government web resources and services.